• MPC Preparation (Info)

  • MPEC 2017-F01 : 2017 EP13

    The following Minor Planet Electronic Circular may be linked-to from your own Web pages, but must not otherwise be redistributed electronically.

    A form allowing access to any MPEC is at the bottom of this page.


    Read MPEC 2017-E98 Read MPEC 2017-F02


    M.P.E.C. 2017-F01                                Issued 2017 Mar. 16, 00:51 UT
    
         The Minor Planet Electronic Circulars contain information on unusual
             minor planets and routine data on comets.  They are published
        on behalf of Division F of the International Astronomical Union by the
              Minor Planet Center, Smithsonian Astrophysical Observatory,
                              Cambridge, MA 02138, U.S.A.
    
                 Prepared using the Tamkin Foundation Computer Network
    
                                  MPC@CFA.HARVARD.EDU
                URL https://www.minorplanetcenter.net/    ISSN 1523-6714
    
                                       2017 EP13
    
    Observations:
         K17E13P  C2017 02 21.48672 12 07 18.088+08 35 02.97         22.1 wLEF001F51
         K17E13P  C2017 02 21.49894 12 07 17.507+08 35 25.70         22.6 wLEF001F51
         K17E13P  C2017 02 21.51115 12 07 16.910+08 35 48.58         22.8 wLEF001F51
         K17E13P  C2017 02 24.44429 12 05 04.319+10 05 47.87         23.1 wLEF001F51
         K17E13P  C2017 02 24.45678 12 05 03.652+10 06 10.67         23.1 wLEF001F51
         K17E13P  C2017 02 24.46934 12 05 03.002+10 06 33.93         22.7 wLEF001F51
         K17E13P  C2017 02 24.56493 12 04 57.971+10 09 28.51         22.6 wLEF001F51
         K17E13P* C2017 03 04.50415 11 57 54.686+14 01 40.75         21.6 wLEF001F51
         K17E13P  C2017 03 04.55207 11 57 51.727+14 03 00.46         21.6 wLEF001F51
         K17E13P  C2017 03 04.56388 11 57 50.997+14 03 19.79         21.6 wLEF001F51
         K17E13P KC2017 03 06.49024 11 55 59.40 +14 55 42.8                oEF001291
         K17E13P KC2017 03 06.49323 11 55 59.20 +14 55 48.0          22.1 RoEF001291
         K17E13P KC2017 03 06.49623 11 55 59.01 +14 55 52.7                oEF001291
         K17E13P KC2017 03 09.39442 11 53 09.12 +16 11 04.0          21.9 RoEF001291
         K17E13P KC2017 03 09.40569 11 53 08.38 +16 11 20.6          21.8 RoEF001291
         K17E13P  C2017 03 09.43545711 53 06.53 +16 12 04.7          21.4 GUEF001H01
         K17E13P  C2017 03 09.43865311 53 06.33 +16 12 09.6          21.5 GUEF001H01
         K17E13P  C2017 03 09.45226411 53 05.49 +16 12 29.9          21.4 GUEF001H01
         K17E13P  C2017 03 09.45738111 53 05.17 +16 12 37.5          21.0 GUEF001H01
    
    Observer details:
    291 LPL/Spacewatch II.  Observer A. F. Tubbiolo.  1.8-m f/2.7 reflector + CCD.
    F51 Pan-STARRS 1, Haleakala.  Observers B. Gibson, T. Goggia, S. Kahale,
        T. Lowe, A. Schultz, M. Willman.  Measurers K. Chambers, S. Chastel,
        L. Denneau, H. Flewelling, M. Huber, E. Lilly, E. Magnier, R. Wainscoat,
        C. Waters, R. Weryk.  1.8-m Ritchey-Chretien + CCD.
    H01 Magdalena Ridge Observatory, Socorro.  Observers W. H. Ryan, E. V. Ryan.
        Measurer W. H. Ryan.  2.4-m f/8.9 reflector + CCD.
    
    Orbital elements:
    2017 EP13                                                Earth MOID = 0.4080 AU
    Epoch 2017 Feb. 16.0 TT = JDT 2457800.5                 MPC
    M  32.94590              (2000.0)            P               Q
    n   0.28868379     Peri.  287.00738     +0.12114747     -0.97908305
    a   2.2673633      Node   154.26737     +0.99192045     +0.11316250
    e   0.4612090      Incl.   22.11644     +0.03764458     +0.16908762
    P   3.41           H   20.9           G   0.15           U   5
    Residuals in seconds of arc
    170221 F51  0.2+  0.2-    170304 F51  0.2+  0.2-    170309 291  0.4-  0.1-
    170221 F51  0.1+  0.1-    170304 F51  0.1+  0.1+    170309 H01  0.2+  0.1-
    170221 F51  0.2-  0.2+    170304 F51  0.1+  0.1-    170309 H01  0.2+  0.0
    170224 F51  0.1+  0.1-    170306 291  0.0   0.2-    170309 H01  0.2+  0.1-
    170224 F51  0.2-  0.2-    170306 291  0.3-  0.3+    170309 H01  0.1+  0.1-
    170224 F51  0.0   0.1+    170306 291  0.4-  0.2+
    170224 F51  0.1-  0.2+    170309 291  0.0   0.2+
    
    Ephemeris:
    2017 EP13                a,e,i = 2.27, 0.46, 22                  q = 1.2216
    Date    TT    R. A. (2000) Decl.     Delta      r     Elong.  Phase     V
    2017 02 14    12 11 35.2 +04 44 08   0.7425  1.6476   144.1    20.6    22.4
    ...
    2017 03 01    12 01 10.6 +12 21 54   0.7682  1.7359   161.3    10.6    22.2
    ...
    2017 03 09    11 53 32.6 +16 01 09   0.8048  1.7834   165.5     8.0    22.2
    ...
    2017 03 15    11 47 41.2 +18 22 13   0.8430  1.8190   163.7     8.8    22.4
    2017 03 16    11 46 44.0 +18 43 29   0.8502  1.8249   163.1     9.1    22.5
    2017 03 17    11 45 47.5 +19 04 04   0.8576  1.8309   162.4     9.5    22.5
    ...
    2017 03 23    11 40 27.3 +20 53 15   0.9074  1.8664   157.1    12.0    22.8
    ...
    2017 03 31    11 34 34.7 +22 40 44   0.9861  1.9136   149.2    15.5    23.1
    ...
    2017 04 15    11 28 42.8 +24 18 52   1.1654  2.0010   134.5    20.9    23.8
    
                           (Last issue was M.P.E.C. 2017-E98)
    
    A. U. Tomatic                (C) Copyright 2017 MPC           M.P.E.C. 2017-F01
    

    Read MPEC 2017-E98 Read MPEC 2017-F02


    MPEC number:

    Enter an MPEC number in one of the following forms:

    • 1997-B01 (the full form)
    • J97B01 (the packed version of the full form)
    • B01 (the abbreviated form)